Location: Home
(42.5358°N, 72.7383°W)
Time: 06:08:17
(UTC-05:00)

Transit 4A - Pass Details

Date: 06 December 2021
Orbit: 863 x 981 km, 66.8° (Epoch: 26 January)

Event Time Altitude Azimuth Distance (km) Brightness Sun altitude
Rises 20:36:09 0° 268° (W) 3,483 11.6 -46.7°
Reaches altitude 10° 20:39:44 10° 290° (WNW) 2,568 10.7 -47.3°
Enters shadow 20:40:26 12° 296° (WNW) 2,442 10.6 -47.5°
